Flag for Turkey Weather past 2 weeks in Gaziantep, Turkey

Now
68 °F

Scattered clouds.


Feels Like: 68 °F
Forecast: 47 / 70 °F
Wind: 10 mph from West

Location: Gaziantep Airport

Current Time: Oct 25, 2014 at 6:34:53 PM

Latest Report: Oct 25, 2014 at 5:50 PM


Visibility: N/A

Pressure: 30.01 "Hg

Humidity: 53%

Dew point: 50 °F

Location of GaziantepLocation

Historic Weather in Gaziantep — Graph

°F

Gaziantep temperature yesterday

Maximum temperature yesterday: 72 °F (at 3:50 PM)
Minimum temperature yesterday: 45 °F (at 6:20 AM)
Average temperature yesterday: 58 °F

Past Weeks' High & Low Weather Summary

 TemperatureHumidityPressure
High82 °F (Oct 10, 5:20 PM)94% (Oct 14, 8:50 AM)30.18 "Hg (Oct 14, 8:50 AM)
Low41 °F (Oct 22, 6:20 AM)16% (Oct 20, 2:50 PM)29.80 "Hg (Oct 19, 6:20 AM)
Average60 °F66%30.01 "Hg
* Reported Oct 10 5:20 PM — Oct 25 5:20 PM, Gaziantep, Weather by CustomWeather, © 2014

Note: Actual official high and low records may vary slightly from our data, if they occured in-between our weather recording intervals... More about our weather records

Advertising

Gaziantep weather history for previous 24 hours

 ConditionsComfort  
Time TempWeatherWind HumidityBarometerVisibility
5:20 PM
Oct 25
70 °FScattered clouds.5 mph43%30.01 "HgN/A
4:50 PM72 °FScattered clouds.3 mph38%30.01 "HgN/A
4:20 PM72 °FScattered clouds.6 mph36%30.01 "HgN/A
3:50 PM73 °FScattered clouds.5 mph36%30.01 "HgN/A
3:20 PM73 °FScattered clouds.7 mph38%30.01 "HgN/A
2:50 PM73 °FScattered clouds.8 mph44%30.01 "HgN/A
2:20 PM72 °FScattered clouds.8 mph47%30.01 "HgN/A
1:50 PM72 °FPassing clouds.7 mph44%30.01 "HgN/A
1:20 PM72 °FPassing clouds.7 mph44%30.04 "HgN/A
12:50 PM72 °FPassing clouds.8 mph47%30.04 "HgN/A
12:20 PM72 °FPassing clouds.6 mph44%30.07 "HgN/A
11:50 AM70 °FPassing clouds.6 mph50%30.07 "HgN/A
11:20 AM70 °FPassing clouds.5 mph50%30.07 "HgN/A
10:50 AM68 °FPassing clouds.3 mph49%30.09 "HgN/A
10:20 AM66 °FSunny.2 mph52%30.09 "Hg10 mi
9:50 AM66 °FSunny.No wind56%30.09 "Hg10 mi
9:20 AM63 °FSunny.No wind64%30.09 "Hg10 mi
8:50 AM57 °FSunny.No wind77%30.09 "Hg10 mi
8:20 AM55 °FSunny.No wind82%30.09 "Hg10 mi
7:50 AM52 °FSunny.No wind88%30.09 "Hg10 mi
7:20 AM50 °FClear.No wind88%30.07 "Hg6 mi
6:50 AM50 °FClear.No wind88%30.07 "Hg10 mi
6:20 AM50 °FClear.No wind88%30.07 "Hg10 mi
5:50 AM50 °FClear.No wind88%30.07 "Hg10 mi
5:20 AM50 °FClear.No wind94%30.07 "Hg10 mi
4:50 AM48 °FClear.No wind94%30.07 "Hg10 mi
4:20 AM52 °FClear.1 mph88%30.07 "Hg10 mi
3:50 AM54 °FClear.No wind82%30.07 "Hg10 mi
3:20 AM50 °FClear.No wind88%30.09 "Hg10 mi
2:50 AM50 °FClear.1 mph94%30.09 "Hg10 mi
2:20 AM50 °FClear.No wind88%30.09 "Hg10 mi
1:50 AM52 °FClear.No wind88%30.09 "Hg10 mi
1:20 AM52 °FClear.No wind82%30.09 "Hg10 mi
12:50 AM50 °FClear.No wind88%30.09 "Hg10 mi
12:20 AM52 °FClear.No wind88%30.09 "Hg10 mi
11:50 PM
Oct 24
52 °FClear.No wind88%30.09 "Hg10 mi
11:20 PM52 °FClear.No wind82%30.09 "Hg10 mi
10:50 PM54 °FClear.2 mph82%30.09 "Hg10 mi
10:20 PM55 °FClear.1 mph77%30.09 "Hg10 mi
9:50 PM55 °FClear.No wind77%30.09 "Hg10 mi
9:20 PM54 °FClear.No wind82%30.09 "Hg10 mi
8:50 PM54 °FClear.No wind82%30.09 "Hg10 mi
8:20 PM57 °FClear.No wind72%30.09 "Hg10 mi
7:50 PM57 °FClear.No wind72%30.07 "Hg10 mi
7:20 PM59 °FClear.No wind68%30.07 "Hg10 mi
6:50 PM63 °FClear.No wind59%30.07 "Hg10 mi
6:20 PM61 °FSunny.No wind68%30.07 "Hg10 mi
Weather by CustomWeather, © 2014

See weather overviewHow to use our weather pages